����������;��������(kVARh)
2018-10-22 00:00;0
2018-10-22 00:15;0
2018-10-22 00:30;0
2018-10-22 00:45;0
2018-10-22 01:00;0
2018-10-22 01:15;0
2018-10-22 01:30;0
2018-10-22 01:45;0
2018-10-22 02:00;0
2018-10-22 02:15;0
2018-10-22 02:30;0
2018-10-22 02:45;0
2018-10-22 03:00;0
2018-10-22 03:15;0
2018-10-22 03:30;0
2018-10-22 03:45;0
2018-10-22 04:00;0
2018-10-22 04:15;0
2018-10-22 04:30;0
2018-10-22 04:45;0
2018-10-22 05:00;0
2018-10-22 05:15;0
2018-10-22 05:30;0
2018-10-22 05:45;0
2018-10-22 06:00;0
2018-10-22 06:15;0
2018-10-22 06:30;0
2018-10-22 06:45;0
2018-10-22 07:00;0,1
2018-10-22 07:15;0,1
2018-10-22 07:30;0,35
2018-10-22 07:45;2,45
2018-10-22 08:00;2,9
2018-10-22 08:15;5,2
2018-10-22 08:30;9,9
2018-10-22 08:45;38,6
2018-10-22 09:00;20,9
2018-10-22 09:15;14,9
2018-10-22 09:30;13,65
2018-10-22 09:45;20,15
2018-10-22 10:00;17,95
2018-10-22 10:15;26,85
2018-10-22 10:30;24,4
2018-10-22 10:45;23,4
2018-10-22 11:00;26,15
2018-10-22 11:15;29,5
2018-10-22 11:30;30,2
2018-10-22 11:45;32,15
2018-10-22 12:00;32,85
2018-10-22 12:15;41,35
2018-10-22 12:30;34,7
2018-10-22 12:45;27,15
2018-10-22 13:00;25,5
2018-10-22 13:15;25,7
2018-10-22 13:30;27,05
2018-10-22 13:45;26
2018-10-22 14:00;27,3
2018-10-22 14:15;26,7
2018-10-22 14:30;24,65
2018-10-22 14:45;24,05
2018-10-22 15:00;23,5
2018-10-22 15:15;20,35
2018-10-22 15:30;21,9
2018-10-22 15:45;23
2018-10-22 16:00;24,35
2018-10-22 16:15;23,05
2018-10-22 16:30;21,35
2018-10-22 16:45;20,5
2018-10-22 17:00;18,8
2018-10-22 17:15;17,8
2018-10-22 17:30;18,25
2018-10-22 17:45;17,3
2018-10-22 18:00;13,85
2018-10-22 18:15;10,2
2018-10-22 18:30;9,9
2018-10-22 18:45;10,2
2018-10-22 19:00;9,25
2018-10-22 19:15;8,9
2018-10-22 19:30;8,5
2018-10-22 19:45;9
2018-10-22 20:00;7,85
2018-10-22 20:15;4,35
2018-10-22 20:30;11,4
2018-10-22 20:45;13,35
2018-10-22 21:00;14,55
2018-10-22 21:15;14,2
2018-10-22 21:30;13,1
2018-10-22 21:45;11,65
2018-10-22 22:00;10,85
2018-10-22 22:15;10,85
2018-10-22 22:30;3,75
2018-10-22 22:45;4,05
2018-10-22 23:00;2,5
2018-10-22 23:15;1,5
2018-10-22 23:30;0,75
2018-10-22 23:45;1,1
2018-10-23 00:00;1,35
2018-10-23 00:15;1,95
2018-10-23 00:30;1,5
2018-10-23 00:45;1
2018-10-23 01:00;2,05
2018-10-23 01:15;1,7
2018-10-23 01:30;2,55
2018-10-23 01:45;2,85
2018-10-23 02:00;2,65
2018-10-23 02:15;2,6
2018-10-23 02:30;3,05
2018-10-23 02:45;2,95
2018-10-23 03:00;3,65
2018-10-23 03:15;2,5
2018-10-23 03:30;4,05
2018-10-23 03:45;4,85
2018-10-23 04:00;4,5
2018-10-23 04:15;4,05
2018-10-23 04:30;4,15
2018-10-23 04:45;4,55
2018-10-23 05:00;5,15
2018-10-23 05:15;4,65
2018-10-23 05:30;3,35
2018-10-23 05:45;3,7
2018-10-23 06:00;3,75
2018-10-23 06:15;2,8
2018-10-23 06:30;4,1
2018-10-23 06:45;3,85
2018-10-23 07:00;4,25
2018-10-23 07:15;4,8
2018-10-23 07:30;5,05
2018-10-23 07:45;8,25
2018-10-23 08:00;8,75
2018-10-23 08:15;10,9
2018-10-23 08:30;12,1
2018-10-23 08:45;15,35
2018-10-23 09:00;15,95
2018-10-23 09:15;18,2
2018-10-23 09:30;20,5
2018-10-23 09:45;26,1
2018-10-23 10:00;27,45
2018-10-23 10:15;27,95
2018-10-23 10:30;27,75
2018-10-23 10:45;28,85
2018-10-23 11:00;30,75
2018-10-23 11:15;33,35
2018-10-23 11:30;35,45
2018-10-23 11:45;34,8
2018-10-23 12:00;35,55
2018-10-23 12:15;34,85
2018-10-23 12:30;34,25
2018-10-23 12:45;34,45
2018-10-23 13:00;37,2
2018-10-23 13:15;41,75
2018-10-23 13:30;37
2018-10-23 13:45;35,8
2018-10-23 14:00;36,4
2018-10-23 14:15;37,4
2018-10-23 14:30;34,75
2018-10-23 14:45;31,95
2018-10-23 15:00;30,95
2018-10-23 15:15;30,25
2018-10-23 15:30;28,6
2018-10-23 15:45;27,95
2018-10-23 16:00;26,1
2018-10-23 16:15;25,55
2018-10-23 16:30;25,85
2018-10-23 16:45;24,1
2018-10-23 17:00;20,1
2018-10-23 17:15;19,35
2018-10-23 17:30;20,05
2018-10-23 17:45;18,25
2018-10-23 18:00;17,85
2018-10-23 18:15;17,3
2018-10-23 18:30;16,65
2018-10-23 18:45;17
2018-10-23 19:00;16,75
2018-10-23 19:15;14,85
2018-10-23 19:30;13,9
2018-10-23 19:45;13,1
2018-10-23 20:00;12,95
2018-10-23 20:15;9,1
2018-10-23 20:30;8,7
2018-10-23 20:45;9,55
2018-10-23 21:00;8,35
2018-10-23 21:15;9,5
2018-10-23 21:30;8,85
2018-10-23 21:45;8,5
2018-10-23 22:00;6,6
2018-10-23 22:15;5,55
2018-10-23 22:30;4,4
2018-10-23 22:45;6,25
2018-10-23 23:00;5,7
2018-10-23 23:15;4,9
2018-10-23 23:30;3,35
2018-10-23 23:45;2,4
2018-10-24 00:00;1,25
2018-10-24 00:15;2,25
2018-10-24 00:30;2,7
2018-10-24 00:45;2,65
2018-10-24 01:00;2,4
2018-10-24 01:15;1,6
2018-10-24 01:30;3,35
2018-10-24 01:45;2,85
2018-10-24 02:00;4,9
2018-10-24 02:15;3,3
2018-10-24 02:30;4,4
2018-10-24 02:45;4,85
2018-10-24 03:00;4,6
2018-10-24 03:15;8,25
2018-10-24 03:30;9,4
2018-10-24 03:45;9,8
2018-10-24 04:00;10,85
2018-10-24 04:15;9,6
2018-10-24 04:30;10,9
2018-10-24 04:45;10
2018-10-24 05:00;8,4
2018-10-24 05:15;5,8
2018-10-24 05:30;3,35
2018-10-24 05:45;4,7
2018-10-24 06:00;5,4
2018-10-24 06:15;3,5
2018-10-24 06:30;3,3
2018-10-24 06:45;4,85
2018-10-24 07:00;3
2018-10-24 07:15;3,35
2018-10-24 07:30;2,45
2018-10-24 07:45;5,45
2018-10-24 08:00;10,3
2018-10-24 08:15;12,4
2018-10-24 08:30;14,3
2018-10-24 08:45;16,9
2018-10-24 09:00;23,65
2018-10-24 09:15;31,45
2018-10-24 09:30;27,2
2018-10-24 09:45;29,3
2018-10-24 10:00;30,25
2018-10-24 10:15;33,1
2018-10-24 10:30;33,7
2018-10-24 10:45;34,65
2018-10-24 11:00;37,45
2018-10-24 11:15;38,75
2018-10-24 11:30;38,65
2018-10-24 11:45;40,9
2018-10-24 12:00;38,95
2018-10-24 12:15;61,35
2018-10-24 12:30;56,25
2018-10-24 12:45;38,7
2018-10-24 13:00;48,15
2018-10-24 13:15;34,65
2018-10-24 13:30;31,85
2018-10-24 13:45;39,15
2018-10-24 14:00;40,5
2018-10-24 14:15;40,2
2018-10-24 14:30;41,75
2018-10-24 14:45;40,55
2018-10-24 15:00;39,95
2018-10-24 15:15;35,95
2018-10-24 15:30;34,8
2018-10-24 15:45;33,35
2018-10-24 16:00;30,65
2018-10-24 16:15;31,2
2018-10-24 16:30;29
2018-10-24 16:45;26,3
2018-10-24 17:00;24,85
2018-10-24 17:15;23,55
2018-10-24 17:30;21,4
2018-10-24 17:45;22,25
2018-10-24 18:00;21,35
2018-10-24 18:15;19,05
2018-10-24 18:30;16,85
2018-10-24 18:45;14,9
2018-10-24 19:00;14,85
2018-10-24 19:15;14,6
2018-10-24 19:30;15,8
2018-10-24 19:45;13,75
2018-10-24 20:00;14
2018-10-24 20:15;13,7
2018-10-24 20:30;15,15
2018-10-24 20:45;13,8
2018-10-24 21:00;12,85
2018-10-24 21:15;12,95
2018-10-24 21:30;13
2018-10-24 21:45;10,8
2018-10-24 22:00;10,95
2018-10-24 22:15;6,45
2018-10-24 22:30;4,25
2018-10-24 22:45;5,3
2018-10-24 23:00;6,9
2018-10-24 23:15;6,5
2018-10-24 23:30;6,6
2018-10-24 23:45;7,85
2018-10-25 00:00;6,6
2018-10-25 00:15;8
2018-10-25 00:30;6,25
2018-10-25 00:45;7,8
2018-10-25 01:00;5,65
2018-10-25 01:15;3,65
2018-10-25 01:30;3,6
2018-10-25 01:45;5,65
2018-10-25 02:00;5,35
2018-10-25 02:15;5,5
2018-10-25 02:30;5,5
2018-10-25 02:45;6,1
2018-10-25 03:00;5,55
2018-10-25 03:15;6,4
2018-10-25 03:30;6,55
2018-10-25 03:45;5,95
2018-10-25 04:00;7,55
2018-10-25 04:15;7,05
2018-10-25 04:30;7,55
2018-10-25 04:45;6,7
2018-10-25 05:00;7,7
2018-10-25 05:15;7,15
2018-10-25 05:30;7,35
2018-10-25 05:45;6,85
2018-10-25 06:00;6,2
2018-10-25 06:15;5,5
2018-10-25 06:30;2,85
2018-10-25 06:45;2,4
2018-10-25 07:00;1,3
2018-10-25 07:15;2
2018-10-25 07:30;0,15
2018-10-25 07:45;9,95
2018-10-25 08:00;13,2
2018-10-25 08:15;11,55
2018-10-25 08:30;14,95
2018-10-25 08:45;14
2018-10-25 09:00;18,6
2018-10-25 09:15;16,65
2018-10-25 09:30;17,5
2018-10-25 09:45;18,2
2018-10-25 10:00;27,85
2018-10-25 10:15;30,2
2018-10-25 10:30;28,35
2018-10-25 10:45;31,4
2018-10-25 11:00;32,15
2018-10-25 11:15;32,3
2018-10-25 11:30;31,9
2018-10-25 11:45;34,95
2018-10-25 12:00;36,35
2018-10-25 12:15;36,35
2018-10-25 12:30;37,15
2018-10-25 12:45;38,35
2018-10-25 13:00;39,35
2018-10-25 13:15;42,35
2018-10-25 13:30;44,25
2018-10-25 13:45;43,75
2018-10-25 14:00;44,55
2018-10-25 14:15;43,3
2018-10-25 14:30;41,6
2018-10-25 14:45;37,5
2018-10-25 15:00;36,85
2018-10-25 15:15;36,7
2018-10-25 15:30;35,8
2018-10-25 15:45;33,6
2018-10-25 16:00;29,65
2018-10-25 16:15;28,8
2018-10-25 16:30;30,1
2018-10-25 16:45;27,8
2018-10-25 17:00;26,2
2018-10-25 17:15;22,3
2018-10-25 17:30;20,5
2018-10-25 17:45;22,7
2018-10-25 18:00;19,25
2018-10-25 18:15;15,85
2018-10-25 18:30;13,1
2018-10-25 18:45;13,9
2018-10-25 19:00;13,9
2018-10-25 19:15;16,75
2018-10-25 19:30;21,05
2018-10-25 19:45;21,9
2018-10-25 20:00;21,95
2018-10-25 20:15;19,15
2018-10-25 20:30;19,7
2018-10-25 20:45;18,3
2018-10-25 21:00;14,9
2018-10-25 21:15;17,9
2018-10-25 21:30;10,85
2018-10-25 21:45;9,8
2018-10-25 22:00;9,35
2018-10-25 22:15;4,15
2018-10-25 22:30;3,1
2018-10-25 22:45;2,55
2018-10-25 23:00;5,5
2018-10-25 23:15;2,75
2018-10-25 23:30;0,35
2018-10-25 23:45;0,45
2018-10-26 00:00;0,25
2018-10-26 00:15;0,2
2018-10-26 00:30;0,6
2018-10-26 00:45;0,45
2018-10-26 01:00;0,2
2018-10-26 01:15;0,4
2018-10-26 01:30;0,45
2018-10-26 01:45;0,55
2018-10-26 02:00;0,9
2018-10-26 02:15;0,65
2018-10-26 02:30;2,3
2018-10-26 02:45;2,1
2018-10-26 03:00;3,2
2018-10-26 03:15;2,25
2018-10-26 03:30;2,55
2018-10-26 03:45;4,35
2018-10-26 04:00;3,55
2018-10-26 04:15;4,05
2018-10-26 04:30;3,55
2018-10-26 04:45;3,25
2018-10-26 05:00;4,4
2018-10-26 05:15;4,65
2018-10-26 05:30;4,75
2018-10-26 05:45;5,25
2018-10-26 06:00;3,7
2018-10-26 06:15;1,8
2018-10-26 06:30;2,4
2018-10-26 06:45;2,2
2018-10-26 07:00;1
2018-10-26 07:15;0,15
2018-10-26 07:30;0
2018-10-26 07:45;1,85
2018-10-26 08:00;8,8
2018-10-26 08:15;7,55
2018-10-26 08:30;10,85
2018-10-26 08:45;12,45
2018-10-26 09:00;15,95
2018-10-26 09:15;18,35
2018-10-26 09:30;17,65
2018-10-26 09:45;18,55
2018-10-26 10:00;18,6
2018-10-26 10:15;23,15
2018-10-26 10:30;26,7
2018-10-26 10:45;25,95
2018-10-26 11:00;28,7
2018-10-26 11:15;29,05
2018-10-26 11:30;30,1
2018-10-26 11:45;31,05
2018-10-26 12:00;30,35
2018-10-26 12:15;29,35
2018-10-26 12:30;28,5
2018-10-26 12:45;27,85
2018-10-26 13:00;27
2018-10-26 13:15;26,5
2018-10-26 13:30;27,1
2018-10-26 13:45;26,6
2018-10-26 14:00;27,65
2018-10-26 14:15;25,75
2018-10-26 14:30;24,7
2018-10-26 14:45;27,4
2018-10-26 15:00;22,2
2018-10-26 15:15;0
2018-10-26 15:30;11,1
2018-10-26 15:45;26,2
2018-10-26 16:00;20
2018-10-26 16:15;18,7
2018-10-26 16:30;15,5
2018-10-26 16:45;15,5
2018-10-26 17:00;14,6
2018-10-26 17:15;15,15
2018-10-26 17:30;15,55
2018-10-26 17:45;12,45
2018-10-26 18:00;13,15
2018-10-26 18:15;12,6
2018-10-26 18:30;13,3
2018-10-26 18:45;10,4
2018-10-26 19:00;8,5
2018-10-26 19:15;8,8
2018-10-26 19:30;12,95
2018-10-26 19:45;12,95
2018-10-26 20:00;11,9
2018-10-26 20:15;17,85
2018-10-26 20:30;14,15
2018-10-26 20:45;10,45
2018-10-26 21:00;7,9
2018-10-26 21:15;9,9
2018-10-26 21:30;11,2
2018-10-26 21:45;10
2018-10-26 22:00;7,8
2018-10-26 22:15;5,2
2018-10-26 22:30;2,85
2018-10-26 22:45;2,75
2018-10-26 23:00;1,45
2018-10-26 23:15;3,1
2018-10-26 23:30;2,8
2018-10-26 23:45;5,1
2018-10-27 00:00;5,05
2018-10-27 00:15;0,45
2018-10-27 00:30;0
2018-10-27 00:45;0,1
2018-10-27 01:00;0
2018-10-27 01:15;0,1
2018-10-27 01:30;1,15
2018-10-27 01:45;0
2018-10-27 02:00;0,05
2018-10-27 02:15;0
2018-10-27 02:30;0
2018-10-27 02:45;0
2018-10-27 03:00;0,1
2018-10-27 03:15;0,05
2018-10-27 03:30;0
2018-10-27 03:45;0,35
2018-10-27 04:00;0
2018-10-27 04:15;0,2
2018-10-27 04:30;0,85
2018-10-27 04:45;0,1
2018-10-27 05:00;0,05
2018-10-27 05:15;0,55
2018-10-27 05:30;0,7
2018-10-27 05:45;0,65
2018-10-27 06:00;0,25
2018-10-27 06:15;0
2018-10-27 06:30;0
2018-10-27 06:45;0,15
2018-10-27 07:00;0
2018-10-27 07:15;0
2018-10-27 07:30;0
2018-10-27 07:45;0
2018-10-27 08:00;0,1
2018-10-27 08:15;0
2018-10-27 08:30;0,95
2018-10-27 08:45;0,45
2018-10-27 09:00;1,3
2018-10-27 09:15;1,75
2018-10-27 09:30;7,8
2018-10-27 09:45;11,55
2018-10-27 10:00;6,25
2018-10-27 10:15;2,95
2018-10-27 10:30;3,05
2018-10-27 10:45;0,3
2018-10-27 11:00;0
2018-10-27 11:15;7,45
2018-10-27 11:30;3,7
2018-10-27 11:45;0,5
2018-10-27 12:00;0
2018-10-27 12:15;0
2018-10-27 12:30;0,2
2018-10-27 12:45;0
2018-10-27 13:00;0
2018-10-27 13:15;0,05
2018-10-27 13:30;0
2018-10-27 13:45;0,2
2018-10-27 14:00;0
2018-10-27 14:15;0
2018-10-27 14:30;0
2018-10-27 14:45;0,15
2018-10-27 15:00;0
2018-10-27 15:15;0,15
2018-10-27 15:30;1,15
2018-10-27 15:45;2,35
2018-10-27 16:00;3,1
2018-10-27 16:15;1,35
2018-10-27 16:30;1,85
2018-10-27 16:45;1,1
2018-10-27 17:00;0,9
2018-10-27 17:15;1,05
2018-10-27 17:30;0,95
2018-10-27 17:45;2,05
2018-10-27 18:00;1,75
2018-10-27 18:15;0,95
2018-10-27 18:30;1,35
2018-10-27 18:45;0,75
2018-10-27 19:00;0,2
2018-10-27 19:15;0,1
2018-10-27 19:30;0,7
2018-10-27 19:45;2
2018-10-27 20:00;0,6
2018-10-27 20:15;3,6
2018-10-27 20:30;3,3
2018-10-27 20:45;3,3
2018-10-27 21:00;6,1
2018-10-27 21:15;14
2018-10-27 21:30;13,45
2018-10-27 21:45;10,9
2018-10-27 22:00;11,5
2018-10-27 22:15;11,05
2018-10-27 22:30;6,3
2018-10-27 22:45;5,4
2018-10-27 23:00;4,6
2018-10-27 23:15;4,5
2018-10-27 23:30;4,95
2018-10-27 23:45;5,3
2018-10-28 00:00;5,15
2018-10-28 00:15;6,1
2018-10-28 00:30;5,3
2018-10-28 00:45;7
2018-10-28 01:00;6
2018-10-28 01:15;8
2018-10-28 01:30;7,75
2018-10-28 01:45;8,2
2018-10-28 02:00;6,75
2018-10-28 02:15;2,4
2018-10-28 02:30;2,75
2018-10-28 02:45;3
2018-10-28 03:00;3,1
2018-10-28 03:15;3,85
2018-10-28 03:15;6,05
2018-10-28 03:30;4
2018-10-28 03:30;6,3
2018-10-28 03:45;5,4
2018-10-28 03:45;6,8
2018-10-28 04:00;4,65
2018-10-28 04:00;5,8
2018-10-28 04:15;6,3
2018-10-28 04:30;6,45
2018-10-28 04:45;7,45
2018-10-28 05:00;6,1
2018-10-28 05:15;6,05
2018-10-28 05:30;5,7
2018-10-28 05:45;5,55
2018-10-28 06:00;6,05
2018-10-28 06:15;3,75
2018-10-28 06:30;4,55
2018-10-28 06:45;5,15
2018-10-28 07:00;4
2018-10-28 07:15;2,85
2018-10-28 07:30;2,65
2018-10-28 07:45;2,4
2018-10-28 08:00;3,3
2018-10-28 08:15;1,6
2018-10-28 08:30;1,7
2018-10-28 08:45;1,4
2018-10-28 09:00;0,6
2018-10-28 09:15;3,35
2018-10-28 09:30;4,3
2018-10-28 09:45;3,75
2018-10-28 10:00;2,55
2018-10-28 10:15;1,9
2018-10-28 10:30;2,75
2018-10-28 10:45;1,85
2018-10-28 11:00;3,2
2018-10-28 11:15;3,15
2018-10-28 11:30;4,95
2018-10-28 11:45;7,45
2018-10-28 12:00;6,8
2018-10-28 12:15;7
2018-10-28 12:30;7,1
2018-10-28 12:45;10,1
2018-10-28 13:00;9,25
2018-10-28 13:15;9,05
2018-10-28 13:30;9,5
2018-10-28 13:45;7,55
2018-10-28 14:00;8,4
2018-10-28 14:15;9,35
2018-10-28 14:30;11,6
2018-10-28 14:45;11,25
2018-10-28 15:00;12
2018-10-28 15:15;11,85
2018-10-28 15:30;9,5
2018-10-28 15:45;6,55
2018-10-28 16:00;7,25
2018-10-28 16:15;9,8
2018-10-28 16:30;7,95
2018-10-28 16:45;9,35
2018-10-28 17:00;10,2
2018-10-28 17:15;9,6
2018-10-28 17:30;9,35
2018-10-28 17:45;7,45
2018-10-28 18:00;9,1
2018-10-28 18:15;6,9
2018-10-28 18:30;7,4
2018-10-28 18:45;9,75
2018-10-28 19:00;9,55
2018-10-28 19:15;8,05
2018-10-28 19:30;7,75
2018-10-28 19:45;10
2018-10-28 20:00;8,6
2018-10-28 20:15;8,45
2018-10-28 20:30;7,8
2018-10-28 20:45;8,65
2018-10-28 21:00;7,35
2018-10-28 21:15;8,25
2018-10-28 21:30;6,15
2018-10-28 21:45;6,35
2018-10-28 22:00;4,9
2018-10-28 22:15;4,9
2018-10-28 22:30;5,5
2018-10-28 22:45;7
2018-10-28 23:00;2,35
2018-10-28 23:15;1,9
2018-10-28 23:30;0,65
2018-10-28 23:45;1,4

